Regional Weather Roundup
Issued by NWS

Home | Current Version | Previous Version | Graphics & Text | Print | Product List | Glossary On
Versions: 1 2 3 4 5 6 7 8 9 10 11 12 13 14 15 16 17 18 19 20 21 22 23 24 25 26 27 28 29 30 31 32 33 34 35 36 37 38 39 40 41 42 43 44 45 46 47 48 49 50
000
ASUS43 KOAX 171810
RWRNE

WEATHER ROUNDUP FOR NEBRASKA
NATIONAL WEATHER SERVICE OMAHA NE
1200 PM CST WED DEC 17 2014

NOTES: SATELLITE DATA IS BEING USED TO AUGMENT CLOUD COVER ABOVE
       12000 FEET.
       "FAIR" INDICATES FEW OR NO CLOUDS BELOW 12,000 FEET WITH NO
       SIGNIFICANT WEATHER AND/OR OBSTRUCTIONS TO VISIBILITY.

  * THESE STATIONS DO NOT REPORT WEATHER SUCH AS RAIN...SNOW OR FOG.

NEZ001>004-019>022-054>056-171900-
NEBRASKA PANHANDLE

CITY           SKY/WX    TMP DP  RH WIND       PRES   REMARKS
SCOTTSBLUFF    PTSUNNY   22  19  89 E8        30.00F WCI  12
6HR MIN TEMP:  12; 6HR MAX TEMP:  22;

ALLIANCE       CLOUDY    22  20  92 S15       30.01F WCI   9
6HR MIN TEMP:  20; 6HR MAX TEMP:  22;

CHADRON        PTSUNNY   18  15  88 CALM      30.02F
6HR MIN TEMP:   5; 6HR MAX TEMP:  18;

KIMBALL        PTSUNNY   31  26  83 CALM      29.95F
SIDNEY         FOG       20  18  92 S14       30.02F VSB 1/2 WCI   7
6HR MIN TEMP:  12; 6HR MAX TEMP:  21;

$$

NEZ057>060-069>072-079>082-171900-
SOUTHWEST NEBRASKA

CITY           SKY/WX    TMP DP  RH WIND       PRES   REMARKS
NORTH PLATTE   CLOUDY    22  19  89 SE7       30.15F WCI  13
6HR MIN TEMP:  20; 6HR MAX TEMP:  22;

IMPERIAL       CLOUDY    22  19  89 SE8       30.10F FOG     WCI  12
6HR MIN TEMP:  21; 6HR MAX TEMP:  22;

LEXINGTON      CLOUDY    22  21  94 SE7       30.20F FOG     WCI  14
MCCOOK         FOG       22  21  96 SE12      30.16F VSB 1   WCI  10
6HR MIN TEMP:  21; 6HR MAX TEMP:  22;

OGALLALA       CLOUDY    22  21  97 S8        30.10F FOG     WCI  12
$$

NEZ005>010-023>029-035>040-094-171900-
NORTH CENTRAL NEBRASKA

CITY           SKY/WX    TMP DP  RH WIND       PRES   REMARKS
VALENTINE      CLOUDY    21  18  88 S10       30.15F FOG     WCI  10
6HR MIN TEMP:  18; 6HR MAX TEMP:  21;

AINSWORTH      CLOUDY    19  17  95 S6        30.16F FOG     WCI  10
BROKEN BOW     CLOUDY    20  19  96 S8        30.19F FOG     WCI  10
6HR MIN TEMP:  19; 6HR MAX TEMP:  21;

O`NEILL        CLOUDY    19  18  98 CALM      30.24F
ORD            CLOUDY    19  17  92 SE5       30.23F WCI  12
6HR MIN TEMP:  18; 6HR MAX TEMP:  19;

THEDFORD       CLOUDY    22  21  95 S10       30.14F FOG     WCI  11
$$

NEZ041-046>049-061>064-073>077-083>087-171900-
SOUTH CENTRAL NEBRASKA

CITY           SKY/WX    TMP DP  RH WIND       PRES   REMARKS
GRAND ISLAND   CLOUDY    23  18  81 SE7       30.26F WCI  15
6HR MIN TEMP:  20; 6HR MAX TEMP:  23;

AURORA         CLOUDY    24  20  85 SE7       30.26F WCI  16
HASTINGS       CLOUDY    23  17  78 SE9       30.24F WCI  13
6HR MIN TEMP:  20; 6HR MAX TEMP:  23;

HEBRON         CLOUDY    25  18  75 E7        30.29F WCI  17
HOLDREGE       CLOUDY    22  20  93 E9        30.20F FOG     WCI  11
KEARNEY *      CLOUDY    21  18  86 E8        30.23F WCI  12
YORK           CLOUDY    25  19  80 SE7       30.28F WCI  17
$$

NEZ011>018-030>034-042>045-171900-
NORTHEAST NEBRASKA

CITY           SKY/WX    TMP DP  RH WIND       PRES   REMARKS
NORFOLK        FAIR      24  15  68 CALM      30.28F
6HR MIN TEMP:  19; 6HR MAX TEMP:  24;

ALBION         CLOUDY    21  17  83 SE5       30.26F WCI  15
BLAIR          FAIR      23  14  69 CALM      30.30F
COLUMBUS *     FAIR      23  12  63 CALM      30.31F
FREMONT        FAIR      24  16  72 NE5       30.32F WCI  18
TEKAMAH        PTSUNNY   23  14  68 N5        30.34F WCI  17
6HR MIN TEMP:  16; 6HR MAX TEMP:  23;

WAYNE          FAIR      22  14  71 NE5       30.31F WCI  16
$$

NEZ050>053-065>068-078-088>093-171900-
SOUTHEAST NEBRASKA

CITY           SKY/WX    TMP DP  RH WIND       PRES   REMARKS
LINCOLN        CLOUDY    24  15  68 CALM      30.33F
6HR MIN TEMP:  20; 6HR MAX TEMP:  24;

OMAHA EPPLEY   PTSUNNY   23  14  68 N5        30.35F WCI  17
6HR MIN TEMP:  17; 6HR MAX TEMP:  23;

BEATRICE       CLOUDY    24  17  74 E3        30.30F
FALLS CITY     CLOUDY    25  17  72 SW5       30.34R WCI  19
6HR MIN TEMP:  20; 6HR MAX TEMP:  26;

NEBRASKA CITY  FAIR      25  14  62 CALM      30.32F
PLATTSMOUTH    CLOUDY    23  13  65 NE3       30.32F
$$

NEZ044-045-051>053-067-171900-
OMAHA AREA

CITY           SKY/WX    TMP DP  RH WIND       PRES   REMARKS
OMAHA EPPLEY   PTSUNNY   23  14  68 N5        30.35F WCI  17
6HR MIN TEMP:  17; 6HR MAX TEMP:  23;

BLAIR          FAIR      23  14  69 CALM      30.30F
FREMONT        FAIR      24  16  72 NE5       30.32F WCI  18
MILLARD        PTSUNNY   25  14  63 CALM      30.33F
OFFUTT AFB     FAIR      24  14  65 VRB2      30.32F
PLATTSMOUTH    CLOUDY    23  13  65 NE3       30.32F
WAHOO          CLOUDY    22  14  70 CALM      30.32F
$$


USA.gov is the U.S. government's official web portal to all federal, state and local government web resources and services.